Lemur-2 Krish

operational
NORAD ID: 64561 Int'l Des: 2025-135 Owner: SPIRE/MCON Country: US Constellation: spire
LEOCIRCULARRETROGRADESSO

About Lemur-2 Krish

Description loading...

Live Position

Loading 3D Globe...

Upcoming Passes

Altitude History

Altitude vs Time

uPlot chart will show altitude changes over time

Two-Line Element Set

1 64561U 25135AK 25315.25434588 .00011392 00000-0 11013-2 0 9997
2 64561 97.7602 67.3668 0001280 104.3598 255.7764 14.92956935 21363
Epoch: Nov 11, 2025 • Age: 13 hours

Current Status

Altitude 599.7 km
Velocity 7.57 km/s
Sub-Earth Point 68.99°N, 74.55°W
Launch Date Jun 23, 2025
Age 0.3 years
Type other

Technical Details

Classification Payload
Mass 10.00 kg
Dry Mass 10.00 kg
Total Mass 10.00 kg
Length 0.30 m
Diameter 0.20 m
Span 0.30 m
Shape Box
Manufacturer SPIREG
Bus Type Cubesat 6U
Phase Status In Orbit
Owner/State SPIRE/MCON/US

Large Constellations

Loading constellations...